• In Germany
  • List of Countries
  • For 7 days
  • Water Temperature
  • Satellite Maps
  • Weather Map
  • Weather Widgets
  • user-avatar
    Login

    Hourly Weather Durres

    Today, 30 March, Thursday

    Time Temperature Precipitation Wind Pressure Humidity
    00:00 +12°C° 0 mm 4 mps 763 mmHg 56%
    01:00 +12°C° 0 mm 4 mps 763 mmHg 56%
    02:00 +12°C° 0 mm 3 mps 763 mmHg 56%
    03:00 +11°C° 0 mm 3 mps 763 mmHg 57%
    04:00 +11°C° 0 mm 3 mps 763 mmHg 57%
    05:00 +12°C° 0 mm 3 mps 763 mmHg 57%
    06:00 +13°C° 0 mm 3 mps 764 mmHg 56%
    07:00 +14°C° 0 mm 3 mps 764 mmHg 55%
    08:00 +17°C° 0 mm 3 mps 764 mmHg 49%
    09:00 +20°C° 0 mm 4 mps 764 mmHg 42%
    10:00 +22°C° 0 mm 4 mps 764 mmHg 36%
    11:00 +23°C° 0 mm 4 mps 764 mmHg 34%
    12:00 +25°C° 0 mm 5 mps 763 mmHg 32%
    13:00 +26°C° 0 mm 5 mps 763 mmHg 30%
    14:00 +24°C° 0 mm 6 mps 763 mmHg 33%
    15:00 +24°C° 0 mm 6 mps 763 mmHg 35%
    16:00 +23°C° 0 mm 7 mps 763 mmHg 38%
    17:00 +21°C° 0 mm 7 mps 763 mmHg 47%
    18:00 +17°C° 0 mm 6 mps 764 mmHg 56%
    19:00 +15°C° 0 mm 6 mps 764 mmHg 65%
    20:00 +15°C° 0 mm 6 mps 764 mmHg 66%
    21:00 +14°C° 0 mm 5 mps 765 mmHg 66%
    22:00 +14°C° 0 mm 5 mps 765 mmHg 67%
    23:00 +14°C° 0 mm 4 mps 765 mmHg 67%

    Tomorrow, 31 March, Friday

    Time Temperature Precipitation Wind Pressure Humidity
    00:00 +14°C° 0 mm 4 mps 765 mmHg 67%
    01:00 +13°C° 0 mm 4 mps 765 mmHg 68%
    02:00 +13°C° 0 mm 4 mps 765 mmHg 69%
    03:00 +13°C° 0 mm 4 mps 765 mmHg 69%
    04:00 +13°C° 0 mm 4 mps 765 mmHg 70%
    05:00 +13°C° 0 mm 4 mps 765 mmHg 68%
    06:00 +14°C° 0 mm 4 mps 765 mmHg 65%
    07:00 +15°C° 0 mm 4 mps 765 mmHg 63%
    08:00 +18°C° 0 mm 4 mps 765 mmHg 55%
    09:00 +20°C° 0 mm 4 mps 765 mmHg 46%
    10:00 +22°C° 0 mm 3 mps 765 mmHg 38%
    11:00 +24°C° 0 mm 3 mps 765 mmHg 36%
    12:00 +25°C° 0 mm 4 mps 764 mmHg 34%
    13:00 +26°C° 0 mm 4 mps 764 mmHg 32%
    14:00 +25°C° 0 mm 4 mps 764 mmHg 35%
    15:00 +23°C° 0 mm 5 mps 764 mmHg 38%
    16:00 +22°C° 0 mm 6 mps 763 mmHg 42%
    17:00 +20°C° 0 mm 5 mps 763 mmHg 50%
    18:00 +17°C° 0 mm 5 mps 764 mmHg 58%
    19:00 +15°C° 0 mm 4 mps 764 mmHg 67%
    20:00 +15°C° 0 mm 4 mps 764 mmHg 67%
    21:00 +16°C° 0 mm 3 mps 764 mmHg 67%
    22:00 +15°C° 0 mm 2 mps 764 mmHg 67%
    23:00 +15°C° 0 mm 2 mps 764 mmHg 68%

    Day after tomorrow, 1 April, Saturday

    Time Temperature Precipitation Wind Pressure Humidity
    00:00 +15°C° 0 mm 2 mps 764 mmHg 69%
    01:00 +14°C° 0 mm 1 mps 764 mmHg 70%
    02:00 +14°C° 0 mm 1 mps 764 mmHg 70%
    03:00 +14°C° 0 mm 2 mps 764 mmHg 71%
    04:00 +13°C° 0 mm 2 mps 764 mmHg 71%
    05:00 +14°C° 0 mm 2 mps 764 mmHg 68%
    06:00 +15°C° 0 mm 2 mps 764 mmHg 65%
    07:00 +16°C° 0 mm 2 mps 764 mmHg 63%
    08:00 +18°C° 0 mm 2 mps 764 mmHg 57%
    09:00 +20°C° 0 mm 2 mps 764 mmHg 51%
    10:00 +23°C° 0 mm 2 mps 764 mmHg 45%
    11:00 +22°C° 0 mm 3 mps 764 mmHg 45%
    12:00 +22°C° 0 mm 4 mps 763 mmHg 44%
    13:00 +22°C° 0 mm 4 mps 763 mmHg 43%
    14:00 +22°C° 0 mm 4 mps 763 mmHg 48%
    15:00 +21°C° 0 mm 4 mps 762 mmHg 52%
    16:00 +20°C° 0 mm 4 mps 762 mmHg 56%
    17:00 +18°C° 0 mm 4 mps 762 mmHg 66%
    18:00 +16°C° 0 mm 3 mps 763 mmHg 75%
    19:00 +13°C° 0 mm 3 mps 763 mmHg 85%
    20:00 +13°C° 0 mm 3 mps 763 mmHg 86%
    21:00 +12°C° 0 mm 3 mps 763 mmHg 87%
    22:00 +12°C° 0 mm 3 mps 764 mmHg 88%
    23:00 +12°C° 0 mm 3 mps 764 mmHg 88%

    2 April, Sunday

    Time Temperature Precipitation Wind Pressure Humidity
    00:00 +12°C° 0 mm 3 mps 764 mmHg 88%
    01:00 +11°C° 0 mm 3 mps 764 mmHg 88%
    02:00 +12°C° 0 mm 2 mps 764 mmHg 86%
    03:00 +12°C° 0 mm 2 mps 764 mmHg 84%
    04:00 +12°C° 0 mm 2 mps 763 mmHg 82%
    05:00 +13°C° 0 mm 2 mps 764 mmHg 76%
    06:00 +15°C° 0 mm 2 mps 764 mmHg 69%
    07:00 +16°C° 0 mm 2 mps 764 mmHg 63%
    08:00 +18°C° 0 mm 2 mps 764 mmHg 57%
    09:00 +20°C° 0 mm 2 mps 764 mmHg 51%
    10:00 +23°C° 0 mm 2 mps 764 mmHg 45%
    11:00 +22°C° 0 mm 3 mps 764 mmHg 44%
    12:00 +23°C° 0 mm 4 mps 764 mmHg 43%
    13:00 +23°C° 0 mm 4 mps 764 mmHg 42%
    14:00 +22°C° 0.1 mm 4 mps 763 mmHg 48%
    15:00 +21°C° 0.1 mm 4 mps 763 mmHg 53%
    16:00 +20°C° 0.1 mm 5 mps 763 mmHg 59%
    17:00 +18°C° 0.1 mm 4 mps 763 mmHg 69%
    18:00 +16°C° 0.1 mm 3 mps 763 mmHg 79%
    19:00 +13°C° 0.1 mm 3 mps 764 mmHg 89%
    20:00 +12°C° 0 mm 3 mps 764 mmHg 90%
    21:00 +13°C° 0 mm 2 mps 764 mmHg 91%
    22:00 +12°C° 0 mm 2 mps 765 mmHg 92%
    23:00 +12°C° 0 mm 2 mps 764 mmHg 91%

    3 April, Monday

    Time Temperature Precipitation Wind Pressure Humidity
    00:00 +12°C° 0 mm 2 mps 764 mmHg 90%
    01:00 +10°C° 0 mm 2 mps 764 mmHg 89%
    02:00 +10°C° 0 mm 2 mps 764 mmHg 85%
    03:00 +10°C° 0 mm 2 mps 764 mmHg 81%
    04:00 +10°C° 0 mm 2 mps 764 mmHg 77%
    05:00 +13°C° 0 mm 2 mps 764 mmHg 71%
    06:00 +14°C° 0 mm 2 mps 764 mmHg 65%
    07:00 +15°C° 0 mm 1 mps 764 mmHg 59%
    08:00 +18°C° 0 mm 1 mps 764 mmHg 51%
    09:00 +20°C° 0 mm 1 mps 764 mmHg 44%
    10:00 +22°C° 0 mm 1 mps 764 mmHg 36%
    11:00 +23°C° 0 mm 2 mps 763 mmHg 35%
    12:00 +24°C° 0 mm 3 mps 763 mmHg 34%
    13:00 +23°C° 0 mm 4 mps 762 mmHg 33%
    14:00 +22°C° 0 mm 4 mps 762 mmHg 37%
    15:00 +21°C° 0 mm 4 mps 762 mmHg 42%
    16:00 +21°C° 0 mm 4 mps 761 mmHg 46%
    17:00 +19°C° 0 mm 4 mps 761 mmHg 55%
    18:00 +17°C° 0 mm 3 mps 761 mmHg 65%
    19:00 +15°C° 0 mm 2 mps 761 mmHg 74%
    20:00 +15°C° 0 mm 2 mps 761 mmHg 74%
    21:00 +14°C° 0 mm 2 mps 761 mmHg 74%
    22:00 +14°C° 0 mm 2 mps 761 mmHg 74%
    23:00 +14°C° 0.4 mm 2 mps 761 mmHg 75%

    4 April, Tuesday

    Time Temperature Precipitation Wind Pressure Humidity
    00:00 +14°C° 0.4 mm 2 mps 761 mmHg 76%
    01:00 +14°C° 0.4 mm 2 mps 761 mmHg 77%
    02:00 +12°C° 0.6 mm 3 mps 761 mmHg 79%
    03:00 +12°C° 0.6 mm 3 mps 761 mmHg 82%
    04:00 +12°C° 0.6 mm 3 mps 761 mmHg 84%
    05:00 +12°C° 0.3 mm 3 mps 761 mmHg 83%
    06:00 +12°C° 0.3 mm 3 mps 761 mmHg 82%
    07:00 +13°C° 0.3 mm 3 mps 761 mmHg 81%
    08:00 +14°C° 0.1 mm 3 mps 761 mmHg 74%
    09:00 +16°C° 0.1 mm 3 mps 761 mmHg 68%
    10:00 +17°C° 0.1 mm 3 mps 761 mmHg 62%
    11:00 +17°C° 0.1 mm 3 mps 761 mmHg 61%
    12:00 +18°C° 0.1 mm 3 mps 761 mmHg 59%
    13:00 +18°C° 0.1 mm 2 mps 760 mmHg 58%
    14:00 +18°C° 0 mm 2 mps 760 mmHg 59%
    15:00 +18°C° 0 mm 2 mps 760 mmHg 59%
    16:00 +18°C° 0 mm 2 mps 760 mmHg 59%
    17:00 +16°C° 0 mm 2 mps 760 mmHg 66%
    18:00 +14°C° 0 mm 3 mps 760 mmHg 73%
    19:00 +13°C° 0 mm 3 mps 761 mmHg 79%
    20:00 +12°C° 0 mm 3 mps 761 mmHg 80%
    21:00 +12°C° 0 mm 3 mps 761 mmHg 82%
    22:00 +12°C° 0 mm 3 mps 761 mmHg 83%
    23:00 +12°C° 0.1 mm 2 mps 761 mmHg 83%
    Show more